www.pogodaiklimat.ru

Погода и климат >> Архив погоды >> Индия >> Тамилнад >> Ченнаи


АРХИВ ПОГОДЫ в Ченнаи

Время (UTC), дата Ветер
(напр.,м/с)
 
Видим.   Явления Облачность Т
(С)
Тd
(С)
f
(%)
Тe
(С)
Тes
(С)
Комфортность P
(гПа)
Po
(гПа)
Тmin
(С)
Tmax
(С)
R
(мм)
R24
(мм)
S
(см)
21 16.08 ЮЗ 2 2000 м {дождь, морось} 9/6 600 м
[Cb cap Ac As]
+25.6 +23.9 90 +35 +35 очень
душно
1005.5 1003.8 15
00 17.08 ЮЗ 3 4000 м 9/5 600 м
[Cb cap Ac As]
+25.2 +23.7 91 +34 +34 очень
душно
1006.4 1004.7 15
03 17.08 ЮЗ 2 4000 м слаб. морось {дождь} 10/6 600 м
[Sc Ac trans]
+24.6 +22.5 88 +32 +33 очень
душно
1008.5 1006.8 +23.8 +35.8 29
06 17.08 ЮЗ 2 4000 м слаб. дождь {морось} 10/5 540 м
[Sc Ac trans]
+25.0 +22.6 87 +33 +38 очень
душно
1008.4 1006.7 10
09 17.08 СЗ 2 10 км {дождь, морось} 9/4 600 м
[Sc Ac trans Cs]
+28.0 +22.7 73 +37 +42 очень
душно
1005.1 1003.4 12
12 17.08 З 2 4000 м {дождь, морось} 5/1 600 м
[Sc Ac trans Ci fib]
+29.6 +21.9 63 +38 +39 очень
душно
1004.3 1002.6 +30.1 12
15 17.08 штиль 0 4000 м 8/6 600 м
[Sc Ac trans]
+28.0 +23.3 76 +38 +38 очень
душно
1006.6 1004.9 12
18 17.08 штиль 0 4000 м в посл. час морось 10/6 600 м
[Sc As op]
+27.0 +23.8 83 +37 +37 очень
душно
1007.6 1005.9 12
21 17.08 штиль 0 4000 м в посл. час морось 9/6 600 м
[Sc diur, vesp As op]
+26.0 +23.1 84 +35 +35 очень
душно
1006.7 1004.9 13
00 18.08 штиль 0 4000 м дождь {морось} 10/8 600 м
[Sc diur, vesp Ac trans]
+25.0 +22.9 88 +33 +33 очень
душно
1006.9 1005.1 19
03 18.08 ЮЗ 1 4000 м слаб. дождь {морось} 10/6 420 м
[Frnb As op]
+25.0 +23.2 90 +33 +34 очень
душно
1009.3 1007.6 +24.0 +30.1 28
06 18.08 З 5 10 км в посл. час дождь {морось} 10/5 540 м
[Sc As trans]
+25.4 +22.7 85 +33 +36 очень
душно
1009.5 1007.8 27
09 18.08 З 2 4000 м 9/5 600 м
[Sc Ac As Ci fib]
+28.2 +22.3 70 +37 +41 очень
душно
1006.9 1005.2 27
12 18.08 З 1 10 км 8/4 600 м
[Sc Ac As Ci fib]
+29.6 +24.1 72 +41 +42 опасность
перегрева
1006.1 1004.4 +30.0 27
15 18.08 штиль 0 4000 м 10/4 600 м
[Sc Ac trans Ci fib]
+27.2 +23.1 78 +36 +36 очень
душно
1008.5 1006.8 27
18 18.08 штиль 0 4000 м 9/4 600 м
[Sc Ac trans]
+26.6 +22.8 80 +35 +35 очень
душно
1009.8 1008.1 27
21 18.08 штиль 0 4000 м 10/5 600 м
[Sc Ac trans]
+26.0 +22.1 79 +34 +34 очень
душно
1008.3 1006.6 27
00 19.08 ЮЗ 2 4000 м 3/3 600 м
[Sc]
+26.0 +22.4 81 +34 +34 очень
душно
1008.2 1006.5 27
03 19.08 З 1 4000 м 3/3 600 м
[Sc Ac trans Ci fib]
+29.8 +23.4 69 +40 +47 очень
душно
1009.3 1007.6 +25.0 +30.0 27
06 19.08 ЮЗ 1 10 км 6/4 600 м
[Sc Ac trans Ci fib]
+32.5 +24.0 61 +44 +57 опасность
перегрева
1008.5 1006.8
09 19.08 штиль 0 10 км 4/4 600 м
[Sc]
+34.4 +23.8 54 +46 +58 опасность
перегрева
1006.3 1004.6
12 19.08 В 2 10 км 5/5 600 м
[Sc]
+31.0 +24.7 69 +44 +44 опасность
перегрева
1005.4 1003.7 +31.0
15 19.08 ЮВ 2 4000 м 9/5 600 м
[Sc Ac trans Ci fib]
+30.0 +24.9 74 +43 +43 опасность
перегрева
1007.8 1006.1
18 19.08 ЮВ 2 4000 м 5/3 600 м
[Cb calv Ci fib]
+28.6 +25.5 83 +42 +42 опасность
перегрева
1009.0 1007.3
21 19.08 З 2 4000 м 10/5 600 м
[Sc Ac As]
+27.8 +24.9 84 +40 +40 очень
душно
1008.0 1006.3
00 20.08 ЮЗ 2 2000 м слаб. морось {дождь} 10/5 540 м
[St Ac As]
+25.4 +22.7 85 +33 +33 очень
душно
1008.1 1006.3 29
03 20.08 штиль 0 4000 м в посл. час морось 8/5 600 м
[Sc Ac trans]
+27.8 +23.7 78 +38 +41 очень
душно
1008.8 1007.1 +25.0 +35.0 29
06 20.08 СЗ 2 10 км 8/4 600 м
[Sc Ac trans Ci fib]
+31.8 +23.1 60 +42 +51 опасность
перегрева
1007.9 1006.2
09 20.08 ЮЗ 4 10 км 8/4 600 м
[Sc Ac trans]
+34.0 +23.7 55 +45 +49 опасность
перегрева
1005.4 1003.7
12 20.08 СВ 2 10 км 9/5 600 м
[Sc Ac trans]
+31.6 +24.2 65 +44 +44 опасность
перегрева
1005.1 1003.4 +34.6
15 20.08 штиль 0 4000 м 8/6 600 м
[Sc Ac trans]
+29.2 +25.5 80 +43 +43 опасность
перегрева
1006.6 1004.9
18 20.08 штиль 0 4000 м 4/3 600 м
[Sc Ac trans]
+28.6 +25.8 85 +43 +43 опасность
перегрева
1007.7 1006.0
21 20.08 ЮЗ 1 4000 м 5/4 600 м
[Sc Ac trans]
+27.4 +23.6 80 +37 +37 очень
душно
1006.6 1004.9
00 21.08 ЮЗ 1 2000 м слаб. дождь {морось} 10/5 480 м
[Cb cap As op]
+26.0 +24.5 91 +36 +36 очень
душно
1006.3 1004.6 4
03 21.08 ЮЗ 3 4000 м {дождь, морось} 10/5 540 м
[Sc Ac trans]
+27.6 +24.1 81 +38 +40 очень
душно
1007.1 1005.4 +25.4 +34.6 9
06 21.08 ЮЗ 2 10 км 10/5 600 м
[Sc Ac trans Ci fib]
+31.8 +23.8 63 +43 +49 опасность
перегрева
1007.1 1005.4
09 21.08 З 3 10 км 9/0 2000 м
[Ac trans Cs]
+33.4 +23.3 56 +44 +55 опасность
перегрева
1005.1 1003.4
12 21.08 З 2 10 км 9/1 600 м
[Sc Ac trans Cs]
+32.4 +22.8 57 +42 +43 опасность
перегрева
1005.1 1003.4 +33.7
15 21.08 штиль 0 4000 м 5/4 600 м
[Sc Ac trans]
+29.4 +24.5 75 +42 +42 опасность
перегрева
1006.5 1004.8
18 21.08 Ю 3 4000 м 10/6 600 м
[Sc Ac trans]
+28.0 +23.7 77 +38 +38 очень
душно
1007.6 1005.9
21 21.08 Ю 2 4000 м 4/4 600 м
[Sc]
+26.4 +23.7 85 +36 +36 очень
душно
1005.8 1004.1
00 22.08 штиль 0 4000 м 10/6 600 м
[Sc Ac trans]
+26.4 +23.7 85 +36 +36 очень
душно
1006.4 1004.7
03 22.08 ЮЗ 1 10 км 10/4 600 м
[Sc As trans]
+27.4 +23.9 81 +38 +40 очень
душно
1007.8 1006.1 +25.6 +33.7
06 22.08 штиль 0 10 км 10/5 600 м
[Sc As trans]
+29.4 +23.9 72 +40 +46 очень
душно
1007.0 1005.3
09 22.08 ЮЗ 2 10 км 10/1 600 м
[Sc Ac trans Cs]
+31.8 +23.8 63 +43 +50 опасность
перегрева
1005.0 1003.3
12 22.08 штиль 0 10 км 8/3 600 м
[Sc Ac trans Ci sp]
+31.4 +25.2 70 +45 +46 опасность
перегрева
1004.4 1002.7 +26.5 +32.4
15 22.08 ЮЗ 2 4000 м зарница 6/3 600 м
[Cb cap Ac trans Ci fib]
+28.6 +23.1 72 +38 +38 очень
душно
1006.8 1005.1
18 22.08 ЮЗ 3 4000 м {морось} 10/5 540 м
[Sc Ac trans]
+26.4 +21.3 74 +34 +34 очень
душно
1007.3 1005.6 0.0
21 22.08 ЮЗ 2 4000 м 10/5 600 м
[Sc Ac trans Ci fib]
+27.2 +22.5 76 +36 +36 очень
душно
1006.3 1004.6 0.0
00 23.08 ЮЗ 2 4000 м 10/5 600 м
[Sc Ac trans Ci fib]
+26.4 +22.9 81 +35 +35 очень
душно
1006.3 1004.6 0.0
03 23.08 З 2 10 км 9/6 600 м
[Sc Ac trans Ci fib]
+29.2 +24.3 75 +41 +43 опасность
перегрева
1007.6 1005.9 +25.6 +32.5 0.0
06 23.08 З 3 10 км 6/4 600 м
[Sc Ac trans Ci fib]
+32.6 +23.1 57 +43 +52 опасность
перегрева
1007.4 1005.7
09 23.08 З 2 10 км 8/5 600 м
[Sc Ac trans]
+33.8 +24.1 57 +46 +51 опасность
перегрева
1005.0 1003.3
12 23.08 З 1 10 км 10/8 600 м
[Sc Ac trans]
+33.6 +22.6 53 +43 +43 опасность
перегрева
1004.7 1003.0 +35.3
15 23.08 Ю 2 4000 м 8/5 600 м
[Sc Ac trans Ci fib]
+29.4 +23.6 71 +40 +40 очень
душно
1007.6 1005.9

 

Местоположение метеостанции Ченнаи (Тамилнад, Индия): широта 13.00 долгота 80.18 высота над уровнем моря 16 м.

В архиве по умолчанию представлена погода в Ченнаи за последнюю неделю. Архивные данные за месяц целиком и за предыдущие месяцы, начиная с января 2011 года, Вы можете получить, выбрав интересующий диапазон дат из раскрывающегося списка и нажав кнопку "Ввод!".


*Определитесь, кто Вы:
робот инопланетянин человек

Внимание! Время в таблицах - всемирное. Для получения местного времени необходимо прибавить поправку, которая равна 5.5 ч.

Смотрите также архив погоды в соседних городах и на ближайших метеорологических станциях:

Погода в Ченнаи (Тамилнад, Индия) (8 км)
Погода в Терутани (Тамилнад, Индия) (72 км)
Погода в Тирупати (Андхра-Прадеш, Индия) (99 км)
Погода в Веллоре (Тамилнад, Индия) (112 км)
Погода в Пондичерри (Пондичерри, Индия) (121 км)
Погода в Куддалоре (Тамилнад, Индия) (144 км)
Погода в Неллуру (Андхра-Прадеш, Индия) (163 км)
Погода в Парангипеттае (Тамилнад, Индия) (173 км)
Погода в Тирупатчере (Тамилнад, Индия) (184 км)
Погода в Маданапалле (Андхра-Прадеш, Индия) (191 км)

Пояснения к столбцам:

Ветер - указаны скорость ветра в м/с - средняя за 10 мин, порывы в срок и между сроками (в фигурных скобках) и направление, откуда дует ветер: С - северный, СВ - северо-восточный, В - восточный, ЮВ - юго-восточный, Ю - южный, ЮЗ - юго-западный, З - западный, СЗ - северо-западный.
Видимость - горизонтальная дальность видимости в метрах или километрах. При видимости от 1 до 10 км при отсутствии осадков обычно наблюдается дымка, при ухудшении видимости до 1 км и менее - туман. В сухую погоду видимость может ухудшаться дымом, пылью или мглою.
Явления - указаны атмосферные явления, наблюдавшиеся в срок или в последний час перед сроком; фигурными скобками обозначены явления, наблюдавшиеся между сроками (за 1-3 часа до срока); квадратными скобками обозначены град или гололедные отложения с указанием их диаметра в мм.
Облачность - указаны через наклонную черту общая и нижняя облачность в баллах и высота нижней границы облаков в метрах; квадратными скобками обозначены формы облаков: Ci - перистые, Cs - перисто-слоистые, Cc - перисто-кучевые, Ac - высококучевые, As - высокослоистые, Sc - слоисто-кучевые, Ns - слоисто-дождевые, Cu - кучевые, Cb - кучево-дождевые. Подробнее классификацию облаков см. в Атласе облаков (PDF).
T - Температура воздуха - температура, измеренная на высоте 2 м над землей.
Td - Температура точки росы - температура, при понижении до которой содержащийся в воздухе водяной пар достигнет насыщения.
f - Относительная влажность воздуха - влажноcть воздуха, измеренная на высоте 2 м над землей.
Te - Эффективная температура - температура, которую ощущает одетый по сезону человек в тени. Характеристика душности погоды. При расчете учитывается влияние влажности воздуха и скорости ветра на теплоощущения человека.
Tes - Эффективная температура на солнце - температура, которую ощущает человек, с поправкой на солнечный нагрев. Характеристика знойности погоды. Зависит от высоты солнца над горизонтом, облачности и скорости ветра. Ночью, в пасмурную погоду, а также при ветре 12 м/с и более поправка равна нулю.
P - Атмосферное давление - приведенное к уровню моря атмосферное давление.
Po - Атмосферное давление - измеренное на уровне метеостанции атмосферное давление.
Tmin - Минимальная температура - минимум температуры воздуха на высоте 2 м над землей.
Tmax - Максимальная температура - максимум температуры воздуха на высоте 2 м над землей.
R - Количество осадков - Количество выпавших осадков за период времени, мм. При наведении курсора мыши на число - период времени, за который выпало указанное количество осадков.
R24 - Количество осадков - Количество выпавших осадков за 24 часа, мм.
S - Снежный покров - Высота снежного покрова, см. При наведении курсора мыши на число - состояние снежного покрова и степень покрытия местности в баллах.